Regional Weather Roundup
Issued by NWS Sterling, VA

Home | Current Version | Previous Version | Text Only | Print | Product List | Glossary On
Versions: 1 2 3 4 5 6 7 8 9 10 11 12 13 14 15 16 17 18 19 20 21 22 23 24 25 26 27 28 29 30 31 32 33 34 35 36 37 38 39 40 41 42 43 44 45 46 47 48 49 50
000
ASUS41 KLWX 070010
RWRLWX

REGIONAL WEATHER ROUNDUP
NATIONAL WEATHER SERVICE BALTIMORE MD/WASHINGTON DC
700 PM EST FRI MAR 06 2015

Note: "FAIR" indicates few or no clouds below 12,000 feet
with no significant weather and/or obstructions to visibility.
 TC=TEMPERATURE CELSIUS

 * =Non NWS site. Station does not report precipitation (e.g. rain,
    snow, etc.), thunder, or fog.

DCZ001-MDZ009-015-VAZ040>042-051-053>054-070100-
WASHINGTON METRO

CITY           SKY/WX    TMP DP  RH WIND       PRES   REMARKS
WASHINGTON NAT MOCLDY    27   9  46 S5        30.46F
DULLES         PTCLDY    19   8  62 CALM      30.43F
ANDREWS AFB    CLEAR     17   8  67 SE2       30.43F
FT BELVOIR     CLEAR     22  13  68 SE2       30.45F
QUANTICO       CLEAR     26   8  46 S3        30.47F
COLLEGE PARK*  CLEAR     23  16  74 CALM      30.46S
LEESBURG*      PTCLDY    25  10  54 CALM      30.43F
MANASSAS*      CLEAR     18  14  86 CALM      30.45F
GAITHERSBURG*  PTCLDY    19   3  49 CALM      30.45F

$$

MDZ006>007-011-014-070100-
BALTIMORE METRO

CITY           SKY/WX    TMP DP  RH WIND       PRES   REMARKS
BWI AIRPORT    PTCLDY    19  11  70 CALM      30.45S
MD SCIENCE CTR   N/A     25   5  42 MISG      30.45R
ANNAPOLIS      CLEAR     21  10  62 S3        30.47S
FORT MEADE*    PTCLDY    18  12  79 CALM      30.48S

$$

MDZ012-015-019>023-070100-
MARYLAND EASTERN SHORE

CITY           SKY/WX    TMP DP  RH WIND       PRES   REMARKS
OCEAN CITY     CLEAR     20  13  74 NE5       30.47R
SALISBURY      CLEAR     24  12  60 NW7       30.46S
BAY BRIDGE AP*   N/A     21  12  68 CALM      30.47F
CAMBRIDGE*     PTCLDY    21  12  68 CALM      30.47S
EASTON*        CLEAR     21  10  63 CALM      30.51S

$$

MDZ017>025-070100-
SOUTHERN MARYLAND

CITY           SKY/WX    TMP DP  RH WIND       PRES   REMARKS
PATUXENT RIVER PTCLDY    17  10  74 CALM      30.47S
ST INIGOES     CLEAR     20  12  71 CALM      30.47S
LEONARDTOWN*     N/A     21  14  73 CALM      30.48S

$$

MDZ003>005-070100-
NORTH CENTRAL MARYLAND

CITY           SKY/WX    TMP DP  RH WIND       PRES   REMARKS
FREDERICK*     CLEAR     16   3  57 CALM      30.45F
HAGERSTOWN APT PTCLDY    20   4  50 CALM      30.38F
WESTMINSTER*   PTCLDY    18   5  57 CALM      30.39F

$$

MDZ501>502-070100-
WESTERN MARYLAND

CITY           SKY/WX    TMP DP  RH WIND       PRES   REMARKS
OAKLAND*       CLEAR     14   9  79 W5        30.21S
CUMBERLAND*    CLEAR     28   5  37 CALM      30.40S

$$

VAZ025>031-070100-
SHENANDOAH VALLEY

CITY           SKY/WX    TMP DP  RH WIND       PRES   REMARKS
WINCHESTER*    PTCLDY    19   3  49 SE3       30.38F
FRONT ROYAL*   FAIR      23   9  54 CALM      30.37F
LURAY*         FAIR      25  14  63 CALM      30.37S
NEW MARKET*    FAIR      16   9  74 CALM      30.36F
STAUNTON*      PTCLDY    19  11  70 CALM      30.37S
WAYNESBORO*    FAIR      21  15  79 CALM      30.34R

$$

WVZ021-048>050-054>055-070100-
EASTERN WEST VIRGINIA PANHANDLE

CITY           SKY/WX    TMP DP  RH WIND       PRES   REMARKS
MARTINSBURG    PTCLDY    22   3  44 CALM      30.39F
PETERSBURG*    NOT AVBL

$$

VAZ036>039-050-070100-
CENTRAL FOOTHILLS

CITY           SKY/WX    TMP DP  RH WIND       PRES   REMARKS
CHARLOTTESVILL PTCLDY    24   9  52 S5        30.40F
CULPEPER*      CLEAR     18  10  73 CALM      30.43F
ORANGE*        CLEAR     19  14  79 CALM      30.44F
GORDONSVILLE*  FAIR      20  12  70 CALM      30.41F
WARRENTON*     FAIR      19  18  93 CALM      30.43F

$$

VAZ055>057-070100-
NORTH AND CENTRAL PIEDMONT

CITY           SKY/WX    TMP DP  RH WIND       PRES   REMARKS
FREDERICKSBRG* CLEAR     24  13  62 SE5       30.46S
STAFFORD*      CLEAR     21  12  68 E5        30.49F

$$

NCZ024-NYZ072-PAZ021-071-VAZ022-071-070100-
OTHER REGIONAL OBSERVATIONS

CITY           SKY/WX    TMP DP  RH WIND       PRES   REMARKS
NEW YORK CITY  CLEAR     24   6  46 W12G17    30.42S WCI  13
PHILADELPHIA   MOCLDY    23  10  57 S8        30.46R WCI  14
PITTSBURGH     MOCLDY    21   8  57 SW9       30.33S WCI  11
ROANOKE        CLEAR     30  14  51 CALM      30.39R
RICHMOND       PTCLDY    27  10  49 E3        30.45F
RALEIGH        PTCLDY    32  10  40 CALM      30.43R

$$

ANZ530>537-070100-
MARINE OBSERVATIONS

STATION/POSITION TIME  TEMP    WIND        PRES
                       AIR SEA DIR/SP/G
                 (UTC) (F)     (DEG/KT/KT) (MB)
THOMAS PT LIGHT  0000           70/  3/  4   N/A
BALT KEY BRIDGE  2300   24     150/  7/  8 1031.6F
COVE POINT       2300   21      40/  3/  5 1031.7F
LEWISETTA        2300   24 32     CALM     1031.9R
SOLOMONS ISLAND  2306      34                N/A

$$



USA.gov is the U.S. government's official web portal to all federal, state and local government web resources and services.